GW3457 Weather Reports


Display with metric or nautical units.
time (UTC)temp
F
wind
direction
speed
MPH
gust
MPH
rain 1hr
in
rain 24hr
in
rain mn
in
humidity
%
barometer
mb
20260509233043 63 0 0.0 1.0 0.00 0.13 0.13 74 1008.4
20260509231550 64 0 0.0 1.0 0.00 0.13 0.13 70 1008.3
20260509230053 66 279 0.0 2.0 0.00 0.13 0.13 68 1008.4
20260509224552 67 0 0.0 2.0 0.00 0.13 0.13 66 1008.3
20260509223053 67 309 2.0 3.0 0.00 0.13 0.13 63 1008.4
20260509221556 67 302 0.0 2.0 0.00 0.13 0.13 63 1008.6
20260509220050 66 343 2.0 4.0 0.00 0.13 0.13 65 1008.6
20260509214549 66 336 1.0 4.0 0.00 0.13 0.13 65 1008.8
20260509213105 67 316 2.0 4.0 0.00 0.13 0.13 64 1008.6
20260509211549 67 314 2.0 4.0 0.00 0.13 0.13 65 1008.8
20260509210051 65 0 1.0 4.0 0.00 0.13 0.13 70 1008.8
20260509204549 64 16 2.0 7.0 0.00 0.13 0.13 70 1009.2
20260509203046 65 16 3.0 8.0 0.00 0.13 0.13 68 1009.3
20260509201555 65 0 3.0 8.0 0.00 0.13 0.13 69 1009.4
20260509200052 63 13 2.0 8.0 0.00 0.13 0.13 74 1009.3
20260509194556 62 26 3.0 7.0 0.00 0.13 0.13 75 1009.5
20260509193047 62 5 3.0 7.0 0.00 0.13 0.13 76 1009.7
20260509191556 61 18 3.0 8.0 0.00 0.13 0.13 78 1009.6
20260509190049 61 17 3.0 5.0 0.00 0.13 0.13 77 1009.7
20260509184550 61 0 0.0 4.0 0.00 0.13 0.13 77 1009.7
20260509183054 61 0 1.0 7.0 0.00 0.13 0.13 75 1009.8
20260509181551 61 28 3.0 8.0 0.00 0.13 0.13 77 1009.9
20260509180055 61 360 1.0 4.0 0.00 0.13 0.13 76 1009.7
20260509174549 59 15 1.0 5.0 0.00 0.13 0.13 77 1010.3
20260509173059 60 16 0.0 4.0 0.00 0.13 0.13 81 1010.4
20260509171549 58 11 2.0 4.0 0.00 0.13 0.13 81 1010.3
20260509170049 59 13 0.0 3.0 0.00 0.13 0.13 82 1010.7
20260509164546 58 0 0.0 3.0 0.00 0.13 0.13 82 1011.0
20260509163051 58 141 0.0 2.0 0.00 0.13 0.13 83 1011.0
20260509161557 56 32 1.0 4.0 0.00 0.13 0.13 84 1011.2
20260509160051 56 0 0.0 2.0 0.00 0.13 0.13 84 1011.2
20260509154551 56 0 2.0 5.0 0.00 0.13 0.13 84 1011.2
20260509153058 55 22 1.0 4.0 0.00 0.13 0.13 85 1011.2
20260509151546 55 25 0.0 4.0 0.00 0.13 0.13 86 1011.1
20260509150039 54 13 1.0 4.0 0.00 0.13 0.13 88 1011.1
20260509144552 53 9 1.0 4.0 0.01 0.13 0.13 89 1011.1
20260509143051 51 0 1.0 4.0 0.02 0.13 0.13 89 1011.1
20260509141549 51 0 0.0 3.0 0.02 0.13 0.13 89 1011.4
20260509140103 51 289 1.0 5.0 0.04 0.13 0.13 87 1011.7
20260509134549 51 210 0.0 4.0 0.05 0.12 0.12 87 1011.3
20260509133049 51 0 2.0 7.0 0.07 0.11 0.11 86 1011.2
20260509131549 51 0 0.0 1.0 0.08 0.11 0.11 90 1011.3
20260509130049 51 0 0.0 3.0 0.07 0.09 0.09 89 1011.5
20260509124550 51 150 0.0 3.0 0.07 0.07 0.07 88 1011.4
20260509123040 51 0 0.0 1.0 0.04 0.04 0.04 88 1011.5
20260509121550 51 0 0.0 0.0 0.03 0.03 0.03 87 1011.4
20260509120050 51 360 0.0 3.0 0.02 0.02 0.02 87 1011.6
20260509114547 51 0 1.0 4.0 0.00 0.00 0.00 85 1011.7
20260509113047 51 360 0.0 4.0 0.00 0.00 0.00 83 1011.7
20260509111546 51 0 0.0 2.0 0.00 0.00 0.00 82 1011.6
20260509110051 51 0 0.0 1.0 0.00 0.00 0.00 82 1011.3
20260509104553 51 0 0.0 3.0 0.00 0.00 0.00 82 1011.0
20260509103100 51 0 0.0 1.0 0.00 0.00 0.00 81 1010.8
20260509101552 52 0 0.0 2.0 0.00 0.00 0.00 79 1010.6
20260509100049 52 0 0.0 0.0 0.00 0.00 0.00 76 1010.7
20260509094554 52 0 0.0 3.0 0.00 0.00 0.00 75 1010.7
20260509093049 51 0 0.0 3.0 0.00 0.00 0.00 77 1010.7
20260509091551 51 0 0.0 2.0 0.00 0.00 0.00 78 1010.6
20260509090057 51 0 0.0 1.0 0.00 0.00 0.00 77 1010.5
20260509084557 51 146 0.0 4.0 0.00 0.00 0.00 78 1010.6
20260509083104 51 0 0.0 1.0 0.00 0.00 0.00 79 1010.6
20260509081547 51 0 0.0 2.0 0.00 0.00 0.00 78 1010.6
20260509080048 51 0 0.0 2.0 0.00 0.00 0.00 78 1010.7
20260509074608 52 0 0.0 1.0 0.00 0.00 0.00 78 1010.7
20260509073058 52 0 0.0 3.0 0.00 0.00 0.00 77 1010.8
20260509071555 52 0 0.0 1.0 0.00 0.00 0.00 77 1010.9
20260509070051 52 0 0.0 2.0 0.00 0.00 0.00 77 1010.8
20260509064547 52 0 1.0 3.0 0.00 0.00 0.00 77 1010.9
20260509063101 52 0 0.0 1.0 0.00 0.00 0.00 76 1011.1
20260509061550 52 0 0.0 1.0 0.00 0.00 0.00 75 1010.9
20260509060101 53 0 0.0 2.0 0.00 0.00 0.00 75 1010.9
20260509054549 53 360 0.0 1.0 0.00 0.00 0.00 74 1011.0
20260509053057 53 0 0.0 1.0 0.00 0.00 0.00 73 1011.1
20260509051549 54 360 0.0 2.0 0.00 0.00 0.00 73 1011.2
20260509050049 54 78 0.0 2.0 0.00 0.00 0.00 71 1011.3
20260509044539 54 0 0.0 2.0 0.00 0.00 0.00 71 1011.4
20260509043051 54 53 0.0 2.0 0.00 0.00 0.00 69 1011.3
20260509041548 54 0 0.0 1.0 0.00 0.00 0.00 69 1011.2
20260509034546 55 32 0.0 3.0 0.00 0.00 0.00 70 1011.2
20260509033107 55 0 1.0 2.0 0.00 0.00 0.00 69 1011.3
20260509031544 55 156 0.0 3.0 0.00 0.00 0.00 67 1011.5
20260509030048 56 0 0.0 1.0 0.00 0.00 0.00 68 1011.7
20260509024557 56 0 0.0 2.0 0.00 0.00 0.00 67 1011.8
20260509023046 56 0 0.0 1.0 0.00 0.00 0.00 66 1011.8
20260509021547 56 235 0.0 2.0 0.00 0.00 0.00 65 1011.8
20260509014542 56 222 0.0 2.0 0.00 0.00 0.00 64 1011.7
20260509013052 57 0 0.0 3.0 0.00 0.00 0.00 62 1011.7
20260509011558 57 232 0.0 1.0 0.00 0.00 0.00 60 1011.5
20260509010050 58 0 0.0 2.0 0.00 0.00 0.00 59 1011.4
20260509004551 59 0 0.0 2.0 0.00 0.00 0.00 58 1011.3
20260509003056 59 0 0.0 1.0 0.00 0.00 0.00 54 1011.3
20260509001546 61 0 0.0 1.0 0.00 0.00 0.00 52 1011.4
20260509000048 62 0 0.0 1.0 0.00 0.00 0.00 50 1011.3
20260508234547 62 0 0.0 2.0 0.00 0.00 0.00 47 1011.1